Rochester, Indiana, United States (46975)
Lat: 41.06N, Lon: 86.22W
Wx Zone: INZ015
Local Info
Past Weather Observations for Today

NOTE: This archive is for the closest National Weather Service station to Rochester. Information may differ from the station used for current weather conditions.

Click here for Long-term Archive

Time Weather Temperature Dewpoint Humidity Pressure Winds Precip Visibility
22:35
Clear
36°F / 2°C 32°F / 0°C 87% 29.74 in
(1007 mb)
SSW 4.6 mph
(SSW 7 kph)
- 10SM
22:15
Clear
36°F / 2°C 32°F / 0°C 87% 29.74 in
(1007 mb)
SSW 5.8 mph
(SSW 9 kph)
- 10SM
21:55
Clear
36°F / 2°C 32°F / 0°C 87% 29.74 in
(1007 mb)
SSW 6.9 mph
(SSW 11 kph)
- 10SM
21:35
Clear
37°F / 3°C 32°F / 0°C 81% 29.74 in
(1007 mb)
SSW 8.1 mph
(SSW 13 kph)
- 10SM
21:15
Clear
37°F / 3°C 32°F / 0°C 81% 29.77 in
(1008 mb)
SSW 6.9 mph
(SSW 11 kph)
- 10SM
20:55
Clear
37°F / 3°C 32°F / 0°C 81% 29.77 in
(1008 mb)
SSW 9.2 mph
(SSW 15 kph)
- 10SM
20:35
Clear
39°F / 4°C 32°F / 0°C 75% 29.77 in
(1008 mb)
SSW 9.2 mph
(SSW 15 kph)
- 10SM
20:15
Partly Cloudy
39°F / 4°C 32°F / 0°C 75% 29.77 in
(1008 mb)
SSW 8.1 mph
(SSW 13 kph)
- 10SM
19:55
Clear
39°F / 4°C 32°F / 0°C 75% 29.77 in
(1008 mb)
SSW 8.1 mph
(SSW 13 kph)
- 10SM
19:35
Partly Cloudy
41°F / 5°C 32°F / 0°C 70% 29.77 in
(1008 mb)
SSW 8.1 mph
(SSW 13 kph)
- 10SM
19:15
Clear
41°F / 5°C 32°F / 0°C 70% 29.77 in
(1008 mb)
SSW 9.2 mph
(SSW 15 kph)
- 10SM
18:55
Partly Cloudy
41°F / 5°C 32°F / 0°C 70% 29.77 in
(1008 mb)
SSW 9.2 mph
(SSW 15 kph)
- 10SM
18:35
Mostly Cloudy
43°F / 6°C 32°F / 0°C 66% 29.77 in
(1008 mb)
SSW 10.4 mph
(SSW 17 kph)
- 10SM
18:15
Overcast
43°F / 6°C 32°F / 0°C 66% 29.77 in
(1008 mb)
SSW 11.5 mph
(SSW 19 kph)
- 10SM
17:55
Mostly Cloudy
45°F / 7°C 32°F / 0°C 61% 29.77 in
(1008 mb)
SSW 11.5 mph
(SSW 19 kph)
- 10SM
17:35
Clear
45°F / 7°C 32°F / 0°C 61% 29.77 in
(1008 mb)
SSW 9.2 mph
(SSW 15 kph)
- 10SM
17:15
Clear
45°F / 7°C 32°F / 0°C 61% 29.77 in
(1008 mb)
SSW 15 mph
(SSW 24 kph)
- 10SM
16:55
Clear
46°F / 8°C 32°F / 0°C 57% 29.77 in
(1008 mb)
SSW 16.1 mph
(SSW 26 kph)
- 10SM
16:35
Clear
46°F / 8°C 32°F / 0°C 57% 29.77 in
(1008 mb)
SW 15 mph
(SW 24 kph)
- 10SM
16:15
Clear
46°F / 8°C 32°F / 0°C 57% 29.77 in
(1008 mb)
SSW 10.4 mph
(SSW 17 kph)
- 10SM
15:55
Clear
46°F / 8°C 30°F / -1°C 53% 29.77 in
(1008 mb)
SW 11.5 mph
(SW 19 kph)
- 10SM
15:35
Clear
46°F / 8°C 30°F / -1°C 53% 29.77 in
(1008 mb)
SW 12.7 mph
(SW 20 kph)
- 10SM
15:15
Clear
46°F / 8°C 30°F / -1°C 53% 29.74 in
(1007 mb)
SW 10.4 mph
(SW 17 kph)
- 10SM
14:55
Clear
46°F / 8°C 30°F / -1°C 53% 29.77 in
(1008 mb)
SW 10.4 mph
(SW 17 kph)
- 10SM
14:35
Clear
46°F / 8°C 30°F / -1°C 53% 29.77 in
(1008 mb)
SW 12.7 mph
(SW 20 kph)
- 10SM
14:15
Clear
46°F / 8°C 30°F / -1°C 53% 29.77 in
(1008 mb)
SW 10.4 mph
(SW 17 kph)
- 10SM
13:55
Clear
46°F / 8°C 30°F / -1°C 53% 29.8 in
(1009 mb)
SW 11.5 mph
(SW 19 kph)
- 10SM
13:35
Clear
45°F / 7°C 30°F / -1°C 57% 29.8 in
(1009 mb)
SW 13.8 mph
(SW 22 kph)
- 10SM
13:15
Clear
45°F / 7°C 30°F / -1°C 57% 29.8 in
(1009 mb)
SW 9.2 mph
(SW 15 kph)
- 10SM
12:55
Clear
45°F / 7°C 30°F / -1°C 57% 29.83 in
(1010 mb)
SW 10.4 mph
(SW 17 kph)
- 10SM
12:35
Clear
45°F / 7°C 30°F / -1°C 57% 29.83 in
(1010 mb)
SSE 11.5 mph
(SSE 19 kph)
- 10SM
12:15
Clear
45°F / 7°C 30°F / -1°C 57% 29.86 in
(1011 mb)
SW 8.1 mph
(SW 13 kph)
- 10SM
11:55
Clear
43°F / 6°C 30°F / -1°C 61% 29.89 in
(1012 mb)
SW 11.5 mph
(SW 19 kph)
- 10SM
11:35
Clear
43°F / 6°C 30°F / -1°C 61% 29.89 in
(1012 mb)
S 11.5 mph
(S 19 kph)
- 10SM
11:15
Clear
43°F / 6°C 30°F / -1°C 61% 29.92 in
(1013 mb)
SSE 9.2 mph
(SSE 15 kph)
- 10SM
10:55
Clear
43°F / 6°C 30°F / -1°C 61% 29.92 in
(1013 mb)
S 8.1 mph
(S 13 kph)
- 10SM
10:35
Clear
41°F / 5°C 28°F / -2°C 61% 29.92 in
(1013 mb)
SW 6.9 mph
(SW 11 kph)
- 10SM
10:15
Clear
37°F / 3°C 28°F / -2°C 70% 29.92 in
(1013 mb)
SW 5.8 mph
(SW 9 kph)
- 10SM
09:55
Clear
37°F / 3°C 28°F / -2°C 70% 29.92 in
(1013 mb)
SW 5.8 mph
(SW 9 kph)
- 10SM
09:35
Clear
37°F / 3°C 28°F / -2°C 70% 29.92 in
(1013 mb)
SW 8.1 mph
(SW 13 kph)
- 10SM
09:15
Clear
36°F / 2°C 28°F / -2°C 75% 29.92 in
(1013 mb)
SW 4.6 mph
(SW 7 kph)
- 10SM
08:55
Clear
34°F / 1°C 28°F / -2°C 81% 29.95 in
(1014 mb)
SW 4.6 mph
(SW 7 kph)
- 10SM
08:35
Clear
34°F / 1°C 28°F / -2°C 81% 29.95 in
(1014 mb)
SW 3.5 mph
(SW 6 kph)
- 10SM
08:15
Partly Cloudy
34°F / 1°C 27°F / -3°C 75% 29.95 in
(1014 mb)
SW 4.6 mph
(SW 7 kph)
- 10SM
07:55
Mostly Cloudy
34°F / 1°C 27°F / -3°C 75% 29.95 in
(1014 mb)
SW 5.8 mph
(SW 9 kph)
- 10SM
07:35
Mostly Cloudy
34°F / 1°C 27°F / -3°C 75% 29.95 in
(1014 mb)
S 5.8 mph
(S 9 kph)
- 10SM
07:15
Partly Cloudy
34°F / 1°C 27°F / -3°C 75% 29.98 in
(1015 mb)
SSE 5.8 mph
(SSE 9 kph)
- 10SM
06:55
Partly Cloudy
34°F / 1°C 27°F / -3°C 75% 29.98 in
(1015 mb)
SSE 3.5 mph
(SSE 6 kph)
- 10SM
06:35
Overcast
34°F / 1°C 27°F / -3°C 75% 29.98 in
(1015 mb)
S 4.6 mph
(S 7 kph)
- 10SM
06:15
Mostly Cloudy
34°F / 1°C 27°F / -3°C 75% 30.01 in
(1016 mb)
SSE 4.6 mph
(SSE 7 kph)
- 10SM
05:55
Clear
34°F / 1°C 27°F / -3°C 75% 30.01 in
(1016 mb)
SSE 5.8 mph
(SSE 9 kph)
- 10SM
05:35
Clear
34°F / 1°C 27°F / -3°C 75% 30.01 in
(1016 mb)
S 3.5 mph
(S 6 kph)
- 10SM
05:15
Clear
32°F / 0°C 27°F / -3°C 80% 30.04 in
(1017 mb)
Calm - 10SM
04:55
Clear
32°F / 0°C 27°F / -3°C 80% 30.04 in
(1017 mb)
Calm - 10SM
04:35
Clear
32°F / 0°C 27°F / -3°C 80% 30.04 in
(1017 mb)
Calm - 10SM
04:15
Clear
32°F / 0°C 27°F / -3°C 80% 30.04 in
(1017 mb)
Calm - 10SM
03:55
Clear
32°F / 0°C 27°F / -3°C 80% 30.06 in
(1018 mb)
Calm - 10SM
03:35
Clear
32°F / 0°C 27°F / -3°C 80% 30.06 in
(1018 mb)
Calm - 10SM
03:15
Clear
32°F / 0°C 27°F / -3°C 80% 30.06 in
(1018 mb)
Calm - 10SM
02:55
Clear
32°F / 0°C 27°F / -3°C 80% 30.06 in
(1018 mb)
Calm - 10SM
02:35
Clear
32°F / 0°C 27°F / -3°C 80% 30.06 in
(1018 mb)
Calm - 10SM
02:15
Clear
32°F / 0°C 27°F / -3°C 80% 30.06 in
(1018 mb)
Calm - 10SM
01:55
Clear
32°F / 0°C 27°F / -3°C 80% 30.09 in
(1019 mb)
Calm - 10SM
01:35
Clear
32°F / 0°C 27°F / -3°C 80% 30.09 in
(1019 mb)
SSE 3.5 mph
(SSE 6 kph)
- 10SM
01:15
Clear
32°F / 0°C 27°F / -3°C 80% 30.09 in
(1019 mb)
SSE 4.6 mph
(SSE 7 kph)
- 10SM
00:55
Clear
32°F / 0°C 27°F / -3°C 80% 30.09 in
(1019 mb)
Calm - 10SM
00:35
Clear
32°F / 0°C 27°F / -3°C 80% 30.09 in
(1019 mb)
Calm - 10SM
00:15
Clear
32°F / 0°C 27°F / -3°C 80% 30.12 in
(1020 mb)
Calm - 10SM
Time Weather Temperature Dewpoint Humidity Pressure Winds Precip Visibility


Weather for websites

WeatherForYou.com, LLC is not responsible for any damages or problems caused by this service. Current weather conditions are obtained from the closest station including government and personal stations which may have varying degrees of accuracy. Weather forecasts are derived from the NOAA NDFD. Like all things, this site belongs to Jesus Christ... He just trusts us to maintain it. If you have any questions or comments email webmaster@weatherforyou.com

Copyright © 2016, WeatherForYou.com LLC. All rights reserved.